Location: Bremen
(53.0793°N, 8.8017°E)
Time: 21:33:32
(UTC+02:00)

Envisat - Pass Details

Date: 06 March 2024
Orbit: 762 x 764 km, 98.3° (Epoch: 13 April)

Event Time Altitude Azimuth Distance (km) Brightness Sun altitude
Rises 03:11:17 0° 20° (NNE) 3,243 7.1 -32.9°
Reaches altitude 10° 03:13:49 10° 30° (NNE) 2,312 6.2 -32.6°
Maximum altitude 03:18:25 33° 95° (E) 1,260 4.4 -32.1°
Enters shadow 03:18:42 33° 102° (ESE) 1,266 4.3 -32.0°
